THA455 VTSP-VTSM

Flight info

Callsign THA455
Flight time 0h 35m
Altitude 23000
Route EMRIT1B EMRIT Y99 AKVUG Y93 DORNA
Aircraft A320/M-SDE3FGHIRWY/LB1

Departure

Time 2026-04-18 11:11
Airport Phuket International Airport (VTSP)

Arrival

Time 2026-04-18 11:46
Airport Samui International Airport (VTSM)
Time Latitude Longitude Altitude Speed Heading
2026-04-18 10:38 8.10985 98.30684 28 ft 0 kts 174°
2026-04-18 11:00 8.11004 98.30683 28 ft 4 kts 176°
2026-04-18 11:00 8.11031 98.30681 28 ft 4 kts 173°
2026-04-18 11:00 8.11056 98.30675 28 ft 4 kts 137°
2026-04-18 11:01 8.11062 98.30660 28 ft 4 kts 85°
2026-04-18 11:01 8.11060 98.30636 28 ft 1 kts 84°
2026-04-18 11:01 8.11060 98.30635 28 ft 0 kts 84°
2026-04-18 11:03 8.11060 98.30636 28 ft 1 kts 84°
2026-04-18 11:03 8.11064 98.30675 28 ft 9 kts 84°
2026-04-18 11:03 8.11072 98.30764 28 ft 14 kts 84°
2026-04-18 11:04 8.11081 98.30864 29 ft 16 kts 84°
2026-04-18 11:04 8.11103 98.30959 29 ft 14 kts 58°
2026-04-18 11:04 8.11126 98.31053 30 ft 11 kts 85°
2026-04-18 11:04 8.11134 98.31141 30 ft 13 kts 85°
2026-04-18 11:05 8.11142 98.31232 31 ft 14 kts 84°
2026-04-18 11:05 8.11152 98.31334 33 ft 15 kts 84°
2026-04-18 11:05 8.11162 98.31441 36 ft 15 kts 86°
2026-04-18 11:05 8.11171 98.31546 40 ft 15 kts 82°
2026-04-18 11:06 8.11182 98.31647 44 ft 14 kts 85°
2026-04-18 11:06 8.11190 98.31743 48 ft 13 kts 85°
2026-04-18 11:06 8.11198 98.31833 52 ft 12 kts 85°
2026-04-18 11:06 8.11204 98.31914 56 ft 11 kts 85°
2026-04-18 11:07 8.11210 98.31991 59 ft 11 kts 85°
2026-04-18 11:07 8.11219 98.32063 62 ft 10 kts 82°
2026-04-18 11:07 8.11227 98.32130 65 ft 9 kts 84°
2026-04-18 11:07 8.11234 98.32189 62 ft 8 kts 83°
2026-04-18 11:08 8.11240 98.32242 70 ft 7 kts 83°
2026-04-18 11:08 8.11245 98.32298 72 ft 12 kts 84°
2026-04-18 11:08 8.11252 98.32391 71 ft 15 kts 84°
2026-04-18 11:08 8.11262 98.32496 80 ft 15 kts 90°
2026-04-18 11:09 8.11271 98.32604 83 ft 18 kts 84°
2026-04-18 11:09 8.11291 98.32823 89 ft 41 kts 84°
2026-04-18 11:09 8.11316 98.33071 95 ft 18 kts 82°
2026-04-18 11:09 8.11396 98.33124 97 ft 16 kts 352°
2026-04-18 11:10 8.11452 98.33078 95 ft 7 kts 294°
2026-04-18 11:10 8.11454 98.33043 94 ft 0 kts 264°
2026-04-18 11:10 8.11452 98.33018 94 ft 16 kts 264°
2026-04-18 11:11 8.11413 98.32624 82 ft 93 kts 265°
2026-04-18 11:11 8.11333 98.31763 50 ft 150 kts 265°
2026-04-18 11:11 8.11261 98.30666 540 ft 156 kts 265°
2026-04-18 11:11 8.11185 98.29576 1208 ft 155 kts 265°
2026-04-18 11:12 8.11079 98.28504 1880 ft 154 kts 263°
2026-04-18 11:12 8.10935 98.27354 2124 ft 176 kts 262°
2026-04-18 11:12 8.10754 98.26067 2450 ft 194 kts 263°
2026-04-18 11:12 8.10447 98.24684 2802 ft 211 kts 244°
2026-04-18 11:13 8.09380 98.23618 3058 ft 235 kts 204°
2026-04-18 11:13 8.07681 98.23350 3314 ft 264 kts 178°
2026-04-18 11:13 8.05816 98.23532 4060 ft 273 kts 172°
2026-04-18 11:13 8.03930 98.23787 5013 ft 274 kts 172°
2026-04-18 11:14 8.02034 98.23968 5947 ft 275 kts 174°
2026-04-18 11:14 8.00109 98.24067 6828 ft 277 kts 176°
2026-04-18 11:14 7.98174 98.24093 7658 ft 281 kts 178°
2026-04-18 11:14 7.96176 98.24094 8355 ft 290 kts 179°
2026-04-18 11:15 7.94140 98.24079 9131 ft 295 kts 179°
2026-04-18 11:15 7.92098 98.24305 9868 ft 297 kts 160°
2026-04-18 11:15 7.90265 98.25312 10291 ft 311 kts 136°
2026-04-18 11:15 7.88986 98.27136 10479 ft 331 kts 110°
2026-04-18 11:16 7.88624 98.29473 10653 ft 349 kts 88°
2026-04-18 11:16 7.88735 98.31933 11082 ft 359 kts 86°
2026-04-18 11:16 7.88849 98.34470 11682 ft 363 kts 86°
2026-04-18 11:16 7.88959 98.37037 12257 ft 369 kts 87°
2026-04-18 11:17 7.89063 98.39642 12836 ft 374 kts 87°
2026-04-18 11:17 7.89164 98.42286 13402 ft 379 kts 87°
2026-04-18 11:17 7.89263 98.44969 13931 ft 384 kts 87°
2026-04-18 11:17 7.89364 98.47679 14461 ft 388 kts 87°
2026-04-18 11:18 7.89691 98.50383 14982 ft 391 kts 77°
2026-04-18 11:18 7.90526 98.52955 15497 ft 393 kts 65°
2026-04-18 11:18 7.91871 98.55368 16018 ft 396 kts 54°
2026-04-18 11:18 7.93508 98.57612 16554 ft 399 kts 53°
2026-04-18 11:19 7.95141 98.59843 17089 ft 402 kts 52°
2026-04-18 11:19 7.96811 98.62132 17615 ft 406 kts 52°
2026-04-18 11:19 7.98486 98.64439 18151 ft 409 kts 52°
2026-04-18 11:19 8.00176 98.66766 18602 ft 413 kts 52°
2026-04-18 11:20 8.01884 98.69120 19084 ft 416 kts 52°
2026-04-18 11:20 8.03599 98.71484 19542 ft 420 kts 53°
2026-04-18 11:20 8.05334 98.73877 20020 ft 423 kts 53°
2026-04-18 11:20 8.07081 98.76285 20481 ft 427 kts 53°
2026-04-18 11:21 8.08702 98.78813 20928 ft 431 kts 62°
2026-04-18 11:21 8.09863 98.81615 21360 ft 435 kts 72°
2026-04-18 11:21 8.10512 98.84613 21780 ft 439 kts 83°
2026-04-18 11:21 8.10657 98.87695 22189 ft 442 kts 89°
2026-04-18 11:22 8.10696 98.90807 22585 ft 445 kts 87°
2026-04-18 11:22 8.11057 98.93915 22776 ft 447 kts 78°
2026-04-18 11:22 8.11927 98.96909 22815 ft 457 kts 68°
2026-04-18 11:22 8.13343 98.99822 22811 ft 466 kts 58°
2026-04-18 11:23 8.15247 99.02480 22811 ft 469 kts 48°
2026-04-18 11:23 8.17487 99.04891 22812 ft 471 kts 45°
2026-04-18 11:23 8.19744 99.07283 22811 ft 471 kts 45°
2026-04-18 11:23 8.22000 99.09682 22812 ft 471 kts 45°
2026-04-18 11:24 8.24254 99.12084 22808 ft 471 kts 45°
2026-04-18 11:24 8.26508 99.14487 22812 ft 471 kts 45°
2026-04-18 11:24 8.28757 99.16886 22812 ft 470 kts 45°
2026-04-18 11:24 8.31011 99.19288 22813 ft 471 kts 45°
2026-04-18 11:25 8.33265 99.21684 22814 ft 470 kts 45°
2026-04-18 11:25 8.35513 99.24077 22812 ft 470 kts 45°
2026-04-18 11:25 8.37765 99.26476 22808 ft 470 kts 45°
2026-04-18 11:25 8.40014 99.28865 22800 ft 470 kts 44°
2026-04-18 11:26 8.42480 99.31017 22795 ft 468 kts 34°
2026-04-18 11:26 8.45234 99.32669 22793 ft 466 kts 24°
2026-04-18 11:26 8.48297 99.33832 22791 ft 464 kts 14°
2026-04-18 11:26 8.51451 99.34436 22790 ft 462 kts
2026-04-18 11:27 8.54615 99.34624 22795 ft 461 kts
2026-04-18 11:27 8.57819 99.34784 22793 ft 461 kts
2026-04-18 11:27 8.61026 99.34942 22791 ft 461 kts
2026-04-18 11:27 8.64235 99.35099 22790 ft 461 kts
2026-04-18 11:28 8.67448 99.35256 22784 ft 461 kts
2026-04-18 11:28 8.70654 99.35413 22782 ft 462 kts
2026-04-18 11:28 8.72822 99.35521 22783 ft 462 kts
2026-04-18 11:28 8.76031 99.35684 22783 ft 462 kts
2026-04-18 11:29 8.79200 99.35847 22784 ft 462 kts
2026-04-18 11:29 8.82406 99.36010 22784 ft 462 kts
2026-04-18 11:29 8.85618 99.36171 22778 ft 462 kts
2026-04-18 11:29 8.88822 99.36333 22777 ft 462 kts
2026-04-18 11:30 8.92034 99.36494 22775 ft 462 kts
2026-04-18 11:30 8.95219 99.36656 22786 ft 449 kts
2026-04-18 11:30 8.98290 99.36812 22781 ft 439 kts
2026-04-18 11:30 9.01341 99.37047 21811 ft 441 kts
2026-04-18 11:31 9.04320 99.37807 20979 ft 442 kts 18°
2026-04-18 11:31 9.07096 99.39127 20272 ft 440 kts 30°
2026-04-18 11:31 9.09549 99.40935 19617 ft 436 kts 41°
2026-04-18 11:31 9.11647 99.43140 18981 ft 433 kts 46°
2026-04-18 11:32 9.13619 99.45376 18392 ft 428 kts 46°
2026-04-18 11:32 9.15598 99.47616 17789 ft 423 kts 46°
2026-04-18 11:32 9.17550 99.49822 17169 ft 419 kts 47°
2026-04-18 11:32 9.19484 99.52008 16593 ft 414 kts 47°
2026-04-18 11:33 9.21392 99.54169 16027 ft 410 kts 48°
2026-04-18 11:33 9.23283 99.56308 15433 ft 406 kts 48°
2026-04-18 11:33 9.25153 99.58426 14880 ft 401 kts 48°
2026-04-18 11:33 9.27006 99.60519 14298 ft 397 kts 48°
2026-04-18 11:34 9.28842 99.62589 13744 ft 392 kts 49°
2026-04-18 11:34 9.30656 99.64634 13104 ft 389 kts 49°
2026-04-18 11:34 9.32417 99.66624 12918 ft 371 kts 49°
2026-04-18 11:34 9.34098 99.68528 12471 ft 363 kts 49°
2026-04-18 11:35 9.35776 99.70423 11931 ft 359 kts 48°
2026-04-18 11:35 9.37433 99.72291 11401 ft 355 kts 48°
2026-04-18 11:35 9.39073 99.74149 10839 ft 352 kts 49°
2026-04-18 11:35 9.40397 99.76211 10333 ft 347 kts 68°
2026-04-18 11:36 9.40944 99.78563 9928 ft 343 kts 87°
2026-04-18 11:36 9.40675 99.80967 9969 ft 343 kts 102°
2026-04-18 11:36 9.40144 99.83254 9916 ft 326 kts 103°
2026-04-18 11:36 9.39620 99.85443 9800 ft 313 kts 103°
2026-04-18 11:37 9.39108 99.87539 9686 ft 301 kts 103°
2026-04-18 11:37 9.38612 99.89570 9534 ft 292 kts 103°
2026-04-18 11:37 9.38140 99.91528 9410 ft 282 kts 103°
2026-04-18 11:37 9.37682 99.93425 9280 ft 273 kts 103°
2026-04-18 11:38 9.37242 99.95249 9149 ft 259 kts 103°
2026-04-18 11:38 9.36834 99.96946 8926 ft 246 kts 103°
2026-04-18 11:38 9.36434 99.98611 8498 ft 241 kts 103°
2026-04-18 11:38 9.36040 100.00243 8052 ft 237 kts 103°
2026-04-18 11:39 9.35648 100.01866 7566 ft 236 kts 103°
2026-04-18 11:39 9.35253 100.03472 7091 ft 235 kts 108°
2026-04-18 11:39 9.34405 100.04846 6671 ft 231 kts 140°
2026-04-18 11:39 9.32976 100.05542 6240 ft 230 kts 167°
2026-04-18 11:40 9.31390 100.05788 5739 ft 231 kts 172°
2026-04-18 11:40 9.29794 100.05959 5290 ft 229 kts 173°
2026-04-18 11:40 9.28275 100.06327 4875 ft 223 kts 149°
2026-04-18 11:40 9.27198 100.07412 4391 ft 221 kts 118°
2026-04-18 11:41 9.26810 100.08886 3964 ft 221 kts 91°
2026-04-18 11:41 9.27181 100.10374 3518 ft 222 kts 60°
2026-04-18 11:41 9.28333 100.11390 3315 ft 227 kts 25°
2026-04-18 11:41 9.29895 100.11663 3311 ft 233 kts 355°
2026-04-18 11:42 9.31416 100.11101 3301 ft 239 kts 323°
2026-04-18 11:42 9.32611 100.09929 3316 ft 239 kts 312°
2026-04-18 11:42 9.33840 100.08803 3303 ft 238 kts 328°
2026-04-18 11:42 9.35363 100.08164 3309 ft 237 kts 349°
2026-04-18 11:43 9.36996 100.07969 3310 ft 237 kts 355°
2026-04-18 11:43 9.38630 100.07811 3311 ft 235 kts 355°
2026-04-18 11:43 9.40251 100.07653 3301 ft 230 kts 355°
2026-04-18 11:43 9.41768 100.07506 3300 ft 217 kts 356°
2026-04-18 11:44 9.43268 100.07362 3303 ft 216 kts 356°
2026-04-18 11:44 9.44717 100.07222 3324 ft 197 kts 356°
2026-04-18 11:44 9.46016 100.07129 3145 ft 181 kts
2026-04-18 11:44 9.47272 100.07149 2487 ft 186 kts 341°
2026-04-18 11:45 9.48482 100.06687 1580 ft 194 kts
2026-04-18 11:45 9.49783 100.06826 1038 ft 182 kts 345°
2026-04-18 11:45 9.50951 100.06553 779 ft 159 kts
2026-04-18 11:45 9.52004 100.06490 474 ft 149 kts 357°
2026-04-18 11:46 9.53023 100.06410 303 ft 145 kts 359°
2026-04-18 11:46 9.54034 100.06318 65 ft 143 kts 355°
2026-04-18 11:46 9.54918 100.06239 52 ft 110 kts 355°
2026-04-18 11:46 9.55411 100.06194 53 ft 46 kts 354°
2026-04-18 11:47 9.55558 100.06152 53 ft 6 kts 15°
2026-04-18 11:47 9.55534 100.06171 51 ft 12 kts 190°
2026-04-18 11:47 9.55381 100.06185 53 ft 27 kts 174°
2026-04-18 11:47 9.55290 100.06199 52 ft 7 kts 150°
2026-04-18 11:48 9.55292 100.06217 53 ft 3 kts 72°
2026-04-18 11:48 9.55295 100.06246 53 ft 6 kts 92°
2026-04-18 11:48 9.55278 100.06280 49 ft 5 kts 148°
2026-04-18 11:48 9.55230 100.06289 53 ft 8 kts 176°
2026-04-18 11:49 9.55203 100.06291 50 ft 3 kts 172°
2026-04-18 11:49 9.55201 100.06308 53 ft 4 kts 85°
2026-04-18 11:49 9.55201 100.06323 53 ft 2 kts 86°
2026-04-18 11:49 9.55202 100.06332 53 ft 0 kts 85°